CZ-3A DEB, 35560

Orbit data source: Space-Track

CZ-3A DEB, 35560 is space debris in HEO originally from a launch on Fri, 02 Feb 2007 UTC launched from the Xichang Space Center, China (XSC). Debris objects in space refer to the collection of defunct objects orbiting the Earth. Examples of debris include non-operational satellites, rocket bodies, and fragments generated from explosions, collisions, or faulty payload assembly.

Loading next visibility...
Identifier
35560, 2007-003U
Orbit
HEO
Country
Flag of CNCN / PRC
Related business
Manufacturer
Unknown
Mission
Spacecraft
Bus & Motor
Unknown
Mass
Unknown
Launch date (UTC)
2007-02-02 (19 years ago)
Launch vehicle
Unknown
Launch site
Xichang Space Center, China (XSC)
Object type
Payload
Rocket body
Debris
Shape & HBR
Unknown shape, 0.2 m
Radar Cross Section
Medium (>0.1 m² and <1 m²)

Expand to show TLE details & history
Last TLE update: 2 days ago

TLE from 2 days ago
0 CZ-3A DEB
1 35560U 07003U   25292.61672426  .00005221  00000-0  16498-1 0  9992
2 35560  23.2307 278.5952 7082396 140.2424 302.5369  2.43888280 38156
Epoch: 2025-10-19T14:48Z
TLE epoch observation values (Epoch: 2025-10-19T14:48:04.976Z)
Latitude
-0.00004°
Longitude
28.19337°
Altitude
19,093.538 km
Speed
3.768 km/s
True Right ascension
18h 34m 10s
True Declination
0° 00' 00"
Sunlit
Object was in daylight at epoch
Visualization orbit readout
Latitude
Unknown
Longitude
Unknown
Altitude
Unknown
Speed
Unknown
Apparent Right ascension
Unknown
Apparent Declination
Unknown
Sunlit
N/A
Visualization observer readout
Local Sidereal Time
13:41:44
Azimuth
Unknown
Elevation
Unknown
Doppler factor
Unknown
Orbital elements
Apogee altitude
33,454.001 km
Perigee altitude
425.031 km
Semi-major axis
23,317.653 km
Eccentricity
0.70824
Inclination
23.2307°
RAAN
278.5952°
Arg. of periapsis
140.2424°
True anomaly
219.72912°
Mean anomaly
302.5369°
Eccentric anomaly
262.32161°
Mean motion
0.60956 °/min
Orbital period
590.59 mins
BSTAR
0.016498
Loading maneuver chart data...
Computing Atmospheric mass density...
Loading historical data...
Loading historical data...
Loading historical data...
Loading historical data...
Loading historical data...
Loading historical data...
Loading historical data...

Documentation

Showing up to 5 results
|